Flag for Brazil Weather past 2 weeks in Fortaleza, Ceará, Brazil

Now
79 °F

Passing clouds.


Feels Like: 81 °F
Forecast: 76 / 85 °F
Wind: 13 mph from East

Location: Fortaleza Aeropor-To

Current Time: Jul 26, 2014 at 12:08:34 AM

Latest Report: Jul 25, 2014 at 11:00 PM


Visibility: N/A

Pressure: 29.95 "Hg

Humidity: 74%

Dew point: 70 °F

Location of FortalezaLocation

Historic Weather in Fortaleza — Graph

°F

Fortaleza temperature yesterday

Maximum temperature yesterday: 86 °F (at 12:00 PM)
Minimum temperature yesterday: 72 °F (at 5:00 AM)
Average temperature yesterday: 79 °F

Past Weeks' High & Low Weather Summary

 TemperatureHumidityPressure
High88 °F (Jul 11, 1:00 PM)100% (Jul 13, 3:00 AM)30.07 "Hg (Jul 13, 3:00 AM)
Low72 °F (Jul 25, 5:00 AM)40% (Jul 11, 11:00 AM)29.89 "Hg (Jul 25, 3:00 PM)
Average80 °F68%29.99 "Hg
* Reported Jul 10 11:00 PM — Jul 25 11:00 PM, Fortaleza, Weather by CustomWeather, © 2014

Note: Actual official high and low records may vary slightly from our data, if they occured in-between our weather recording intervals... More about our weather records

Advertising

Fortaleza weather history for previous 24 hours

 ConditionsComfort  
Time TempWeatherWind HumidityBarometerVisibility
11:00 PM
Jul 25
79 °FPassing clouds.13 mph74%29.95 "HgN/A
10:00 PM79 °FPassing clouds.13 mph74%29.95 "HgN/A
9:00 PM79 °FPassing clouds.13 mph74%29.95 "HgN/A
8:00 PM79 °FPassing clouds.14 mph74%29.95 "HgN/A
7:00 PM79 °FPassing clouds.13 mph74%29.92 "HgN/A
6:00 PM79 °FClear.13 mph74%29.89 "Hg10 mi
5:00 PM81 °FSunny.15 mph66%29.89 "Hg10 mi
4:00 PM82 °FSunny.15 mph62%29.89 "Hg10 mi
3:00 PM82 °FPassing clouds.21 mph62%29.89 "HgN/A
2:00 PM84 °FPassing clouds.21 mph55%29.92 "HgN/A
1:00 PM84 °FPassing clouds.21 mph55%29.92 "HgN/A
12:00 PM86 °FPassing clouds.24 mph52%29.95 "HgN/A
11:00 AM84 °FScattered clouds.23 mph55%29.98 "HgN/A
10:00 AM84 °FScattered clouds.15 mph58%29.98 "HgN/A
9:00 AM81 °FScattered clouds.14 mph66%29.98 "HgN/A
8:00 AM77 °FPassing clouds.10 mph74%29.98 "HgN/A
7:00 AM75 °FPassing clouds.8 mph78%29.98 "HgN/A
6:00 AM73 °FPassing clouds.7 mph78%29.95 "HgN/A
5:00 AM72 °FPassing clouds.8 mph83%29.95 "HgN/A
4:00 AM73 °FPassing clouds.6 mph78%29.95 "HgN/A
3:00 AM75 °FPassing clouds.8 mph78%29.95 "HgN/A
2:00 AM77 °FPassing clouds.12 mph74%29.95 "HgN/A
1:00 AM77 °FPassing clouds.12 mph74%29.95 "HgN/A
12:00 AM77 °FPassing clouds.15 mph74%29.98 "HgN/A
Weather by CustomWeather, © 2014

See weather overviewHow to use our weather pages